Regional Weather Roundup
Issued by NWS

Home | Current Version | Previous Version | Text Only | Print | Product List | Glossary Off
Versions: 1 2 3 4 5 6 7 8 9 10 11 12 13 14 15 16 17 18 19 20 21 22 23 24 25 26 27 28 29 30 31 32 33 34 35 36 37 38 39 40 41 42 43 44 45 46 47 48 49 50

000
ASUS43 KMPX 300910
RWRMN
WEATHER ROUNDUP FOR MINNESOTA
NATIONAL WEATHER SERVICE TWIN CITIES/CHANHASSEN MN
400 AM CDT THU OCT 30 2014


NOTE: "FAIR" INDICATES FEW OR NO CLOUDS BELOW 12,000 FEET WITH NO
SIGNIFICANT WEATHER AND/OR OBSTRUCTIONS TO VISIBILITY. N/A MEANS
CURRENT SKY AND/OR WEATHER CONDITIONS ARE NOT AVAILABLE.

MNZ060>063-068>070-301000-
   Twin Cities Metro

CITY           SKY/WX    TMP DP  RH WIND       PRES   REMARKS
TWIN CITIES    CLOUDY    38  32  79 E3        30.05F
ST PAUL        CLOUDY    38  34  85 S5        30.07F
CRYSTAL        CLOUDY    40  33  76 E3        30.04F
BLAINE         CLOUDY    39  37  93 CALM      30.04F
LAKEVILLE      CLOUDY    34  30  86 CALM      30.05S
EDEN PRAIRIE   CLOUDY    38  33  82 SE5       30.03F
SOUTH ST PAUL  CLOUDY    38  33  83 CALM      30.05F
LAKE ELMO      CLOUDY    36  34  93 CALM      30.06F
$$
MNZ001>005-007-008-013>017-022>024-027-028-301000-
   Northwest Minnesota

CITY           SKY/WX    TMP DP  RH WIND       PRES   REMARKS
BEMIDJI        CLOUDY    34  31  89 CALM      30.02S
HALLOCK        PTCLDY    32  30  93 NE6       30.07R WCI  26
ROSEAU         MOCLDY    32  27  80 CALM      30.06S
WARROAD        CLOUDY    34  28  80 NW3       30.07R
THIEF RVR FALL CLOUDY    36  32  87 E7        30.03S
CROOKSTON      MIX PCPN  37  36  93 E7        30.03S
FOSSTON        CLOUDY    34  32  93 CALM      30.02S
DETROIT LAKES  PTCLDY    36  34  93 SE3       30.00F
MOORHEAD       CLOUDY    39  39 100 CALM      30.01R
PARK RAPIDS    CLOUDY    35  33  92 SE5       30.01S WCI  31
MAHNOMEN       DRIZZLE   36  35  96 E3        30.00S
$$
MNZ006-009>011-018-025>026-301000-
   North Central Minnesota

CITY           SKY/WX    TMP DP  RH WIND       PRES   REMARKS
BAUDETTE       CLOUDY    34  31  88 CALM      30.05S
FLAG ISLAND    CLOUDY    36  34  93 NW13      30.05R
INTL FALLS     CLOUDY    34  33  96 CALM      30.03S
WASKISH        CLOUDY    34  32  93 CALM      30.04F
BIG FORK       CLOUDY    34  32  93 CALM      30.04F
LONGVILLE      CLOUDY    32  30  93 CALM      30.02F
GRAND RAPIDS   CLOUDY    34  30  86 CALM      30.04R
CRANE LAKE     CLOUDY    34  32  93 CALM      30.06R
ORR            CLOUDY    34  30  86 CALM      30.02R
COOK           LGT RAIN  34  34 100 CALM      30.04S
WALKER         CLOUDY    35  32  88 CALM      30.02S
$$
MNZ012-019>021-037-301000-
   Northeast Minnesota

CITY           SKY/WX    TMP DP  RH WIND       PRES   REMARKS
DULUTH         CLOUDY    36  32  85 SW5       30.03F
ELY            CLOUDY    34  34 100 SW3       30.02S
HIBBING        CLOUDY    35  32  88 CALM      30.04R
EVELETH        CLOUDY    34  34 100 W3        30.04S
DULUTH HARBOR  CLOUDY    39  36  87 CALM      30.07S
TWO HARBORS    CLOUDY    37 N/A N/A SW3       30.02F
SILVER BAY     CLOUDY    37  34  87 CALM      30.01F
GRAND MARAIS     N/A     41  34  76 CALM      30.02F
G MARAIS ARPRT CLOUDY    34  30  86 NW1       30.00S
$$
MNZ029>031-032-039>041-046>048-054>057-064-301000-
   West Central Minnesota

CITY           SKY/WX    TMP DP  RH WIND       PRES   REMARKS
FERGUS FALLS   CLOUDY    39  36  87 S6        30.01S
WHEATON        MOCLDY    36  34  93 SE7       30.01R
MORRIS         CLOUDY    39  36  87 SE9       29.99S
ALEXANDRIA     CLOUDY    38  34  85 SE6       30.01F
ELBOW LAKE     CLOUDY    38  36  92 SE8       29.99F
WADENA         CLOUDY    36  34  93 CALM      30.01R
GLENWOOD       CLOUDY    37  36  93 SE5       30.01F
APPLETON       DRIZZLE   39  37  93 E5        29.99F
BENSON         MIX PCPN  39  36  87 SE5       30.00F
ORTONVILLE     CLOUDY    37  36  93 SE6       29.99F
MADISON        CLOUDY    43  39  87 SE3       29.99S
WILLMAR        DRIZZLE   39  36  87 SE7       30.02F
$$
MNZ033>034-036-042>043-049>051-058-059-301000-
   Central Minnesota

CITY           SKY/WX    TMP DP  RH WIND       PRES   REMARKS
ST CLOUD       CLOUDY    38  34  85 E3        30.04F
SAUK CENTRE    CLOUDY    37  33  87 CALM      30.02F
PAYNESVILLE    DRIZZLE   37  32  84 E5        30.02F
AITKIN         MIX PCPN  37  32  81 S5        30.01F
PINE RIVER     CLOUDY    36  34  93 CALM      30.06R
BRAINERD       LGT RAIN  35  32  88 CALM      30.03F
STAPLES        CLOUDY    36  32  87 CALM      30.02F
LONG PRAIRIE   CLOUDY    36  34  93 SE3       30.02F
LITTLE FALLS   CLOUDY    36  32  87 SE3       30.03F
LITCHFIELD     CLOUDY    37  36  93 CALM      30.03F
BUFFALO        CLOUDY    38  33  82 CALM      30.05S
MAPLE LAKE     CLOUDY    40  36  84 CALM      30.05S
$$
MNZ037-044-045-052-053-301000-
   East Central Minnesota

CITY           SKY/WX    TMP DP  RH WIND       PRES   REMARKS
PRINCETON      DRIZZLE   39  34  81 CALM      30.05S
MORA           CLOUDY    34  32  93 CALM      30.07S
CAMBRIDGE      CLOUDY    39  30  70 CALM      30.04S
RUSH CITY      CLOUDY    36  32  86 CALM      30.06S
MOOSE LAKE     CLOUDY    34  32  93 CALM      30.03F
HINCKLEY       CLOUDY    36  34  93 CALM      30.06R
CLOQUET        CLOUDY    36  32  87 CALM      30.04S
MCGREGOR       CLOUDY    34  32  93 CALM      30.04F
$$
MNZ071>073-080-081-089-090-097-098-301000-
   Southwest Minnesota

CITY           SKY/WX    TMP DP  RH WIND       PRES   REMARKS
MONTEVIDEO     DRIZZLE   39  37  93 SE6       30.00F
GRANITE FALLS  CLOUDY    39  35  87 CALM      30.01F
CANBY          CLOUDY    40  37  89 SE5       30.00S
MARSHALL       CLOUDY    41  34  75 SE6       29.98S
REDWOOD FALLS  LGT RAIN  40  34  79 E6        30.01F
OLIVIA         LGT RAIN  39  34  81 E5        30.01S
PIPESTONE      CLOUDY    45  34  65 S3        29.95F
WINDOM         MOCLDY    41  34  75 E5        30.00F
WORTHINGTON    CLOUDY    45  30  57 CALM      29.98S
JACKSON        CLOUDY    43  32  65 SE6       30.00F
TRACY          CLOUDY    41  37  84 SE5       29.99F
SLAYTON        CLOUDY    42  32  68 CALM      29.99S
$$
MNZ065>067-074>077-082>085-091>093-301000-
   South Central Minnesota

CITY           SKY/WX    TMP DP  RH WIND       PRES   REMARKS
MANKATO        CLOUDY    39  30  70 SE7       30.03F
NEW ULM        CLOUDY    39  34  81 SE3       30.02F
ST JAMES       DRIZZLE   41  34  75 CALM      30.03F
FAIRMONT       CLOUDY    41  30  65 S5        30.02S
GLENCOE        CLOUDY    38  34  85 E3        30.03S
FARIBAULT      CLOUDY    39  34  81 CALM      30.05S
OWATONNA       MOCLDY    39  32  75 S6        30.04F
WASECA         CLOUDY    36  30  80 SE3       30.05F
ALBERT LEA     CLOUDY    37  34  87 S3        30.04F
$$
MNZ078>079-086>088-094>096-301000-
   Southeast Minnesota

CITY           SKY/WX    TMP DP  RH WIND       PRES   REMARKS
ROCHESTER      CLOUDY    36  32  85 S7        30.05F
RED WING       CLOUDY    37  34  87 CALM      30.05F
STANTON        CLOUDY    38  32  80 CALM      30.04F
DODGE CENTER   CLOUDY    37  36  93 S5        30.05R
WINONA         CLOUDY    36  34  93 CALM      30.08F
AUSTIN         CLOUDY    37  32  81 S3        30.05S
PRESTON        MOCLDY    35  32  90 S7        30.06F WCI  29
$$
ABBREVIATIONS USED IN REMARKS
   TC - TEMPERATURES IN CELSIUS
  WCI - WIND CHILL INDEX
   HX - HEAT INDEX
  VSB - VISIBILITY
$$



USA.gov is the U.S. government's official web portal to all federal, state and local government web resources and services.